[[{"header":{"parameterUnit":"m.s-1","parameterCategory":1,"la1":30.2991,"la2":30.254,"lo1":-89.0895,"lo2":-89.0444,"dy":0.0017,"dx":0.0017,"nx":28,"ny":28,"refTime":"2026-03-05T03:00:00:Z","depth":0,"parameterNumber":2,"parameterNumberName":"U-component_of_WINDS"},"data":[0,0,0,0,0,0,0,0,0,0,0,0,0,0,0,0,0,0,0,0,0,0,0,0,0,0,0,0,0,0,0,0,0,0,0,0,0,0,0,0,0,0,0,0,0,0,0,0,0,0,0,0,0,0,0,0,0,0,-4.6623,-4.6624,0,-4.6693,-4.6694,-4.6695,-4.6658,-4.6657,-4.6655,-4.6653,-4.6724,-4.6727,-4.6731,0,0,0,0,0,0,0,0,0,0,0,0,0,-4.6459,-4.6463,-4.6623,-4.6624,-4.6625,-4.6693,-4.6694,-4.6695,-4.6659,-4.6656,-4.6654,-4.6652,-4.6723,-4.6727,-4.6731,0,0,0,0,0,0,0,0,0,0,0,0,0,-4.653,-4.6464,-4.6623,-4.6615,-4.6615,-4.6693,-4.6694,-4.6695,-4.6659,-4.6656,-4.6654,-4.6651,-4.6721,-4.6727,-4.6732,-4.6821,0,0,-4.6749,-4.6751,0,0,0,0,0,0,0,0,-4.6526,-4.6536,-4.6615,-4.6616,-4.6616,-4.6664,-4.6662,-4.6737,-4.666,-4.6642,-4.6653,-4.665,-4.6706,-4.6713,-4.6732,-4.6824,-4.6827,-4.6749,-4.6752,-4.6755,-4.6756,0,0,0,0,0,0,0,-4.6521,-4.6533,-4.6651,-4.6617,-4.6617,-4.6608,-4.6615,-4.6676,-4.6689,-4.6644,-4.6641,-4.665,-4.6706,-4.6727,-4.6733,-4.6828,-4.6749,-4.6754,-4.6757,-4.6759,-4.6999,-4.7002,0,0,0,0,0,0,-4.6517,-4.6529,-4.6648,-4.6653,-4.6563,-4.6614,-4.6621,-4.6651,-4.6688,-4.6691,-4.6652,-4.6648,-4.6719,-4.6727,-4.6736,-4.6842,-4.6755,-4.676,-4.6763,-4.6996,-4.6999,-4.7003,0,0,0,0,0,0,-4.6513,-4.6528,-4.6646,-4.659,-4.6605,-4.6619,-4.6653,-4.6654,-4.6675,-4.6695,-4.6697,-4.6671,-4.6717,-4.6728,-4.68,-4.6844,-4.6762,-4.6767,-4.6992,-4.6997,-4.7001,-4.7056,0,0,0,0,0,0,-4.6509,-4.6527,-4.656,-4.6591,-4.6608,-4.6709,-4.6656,-4.6658,-4.6685,-4.668,-4.6713,-4.6716,-4.6716,-4.6792,-4.6806,-4.685,-4.6771,-4.6988,-4.6994,-4.7,-4.705,-4.7062,-4.7072,0,0,0,0,0,-4.6503,-4.6572,-4.6562,-4.6577,-4.665,-4.6711,-4.6721,-4.6719,-4.6688,-4.6722,-4.6735,-4.6715,-4.6838,-4.68,-4.6815,-4.6861,-4.6985,-4.6992,-4.6999,-4.7045,-4.706,-4.7072,0,0,0,0,0,0,-4.6545,-4.6576,-4.6565,-4.6646,-4.6677,-4.6705,-4.6747,-4.6734,-4.6773,-4.6767,-4.6763,-4.6771,-4.6846,-4.6862,-4.6819,-4.695,-4.6907,-4.6917,-4.6937,-4.6951,-4.6961,-4.6955,-4.6776,0,0,0,0,0,-4.6564,-4.6611,-4.6636,-4.6706,-4.6722,-4.6732,-4.6759,-4.6756,-4.6786,-4.6799,-4.6817,-4.6848,-4.6894,-4.6923,-4.6966,-4.7054,-4.706,-4.7093,-4.7104,-4.7113,-4.7121,-4.7168,-4.7183,-4.7026,-4.7026,-4.7026,0,0,-4.6603,-4.6626,-4.6656,-4.6715,-4.6737,-4.6787,-4.6743,-4.6796,-4.6833,-4.6807,-4.6876,-4.6891,-4.6925,-4.7005,-4.7042,-4.702,-4.7167,-4.7122,-4.7129,-4.7132,-4.7177,-4.7192,-4.7205,-4.7031,-4.703,-4.7029,0,0,-4.6698,-4.6721,-4.6781,-4.6806,-4.6842,-4.6849,-4.6864,-4.6895,-4.6904,-4.6974,-4.6956,-4.7,-4.7078,-4.7104,-4.7127,-4.7236,-4.7219,-4.7251,-4.7306,-4.7352,-4.7365,-4.7376,-4.7414,-4.7427,-4.7259,-4.726,-4.726,0,-4.6742,-4.6815,-4.6814,-4.687,-4.6896,-4.6877,-4.6938,-4.6962,-4.701,-4.7029,-4.7005,-4.7104,-4.7126,-4.7212,-4.7239,-4.7259,-4.7276,-4.7245,-4.7363,-4.7374,-4.7384,-4.742,-4.7435,-4.7263,-4.7263,-4.7262,-4.7262,0,-4.6866,-4.6918,-4.6962,-4.701,-4.7042,-4.71,-4.7109,-4.7142,-4.7137,-4.7147,-4.7219,-4.7245,-4.7293,-4.7314,-4.731,-4.74,-4.7386,-4.7363,-4.7319,-4.7403,-4.7437,-4.7451,-4.7268,-4.7267,-4.7266,-4.7265,0,0,-4.6986,-4.7035,-4.7051,-4.7073,-4.7113,-4.7152,-4.7211,-4.7259,-4.7287,-4.7322,-4.737,-4.7439,-4.7419,-4.7445,-4.7444,-4.7485,-4.7569,-4.7457,-4.7458,-4.7475,-4.767,-4.7685,-4.7701,-4.756,-4.7562,-4.7564,-4.7667,0,-4.7083,-4.7184,-4.7187,-4.728,-4.7327,-4.7311,-4.7362,-4.7393,-4.7405,-4.7447,-4.7461,-4.7509,-4.7479,-4.7495,-4.7535,-4.755,-4.7608,-4.7543,-4.7604,-4.7606,-4.7592,-4.7719,-4.7735,-4.783,-4.768,-4.7683,-4.7684,0,-4.7208,-4.7248,-4.7346,-4.738,-4.74,-4.7446,-4.7491,-4.7532,-4.7567,-4.7573,-4.7604,-4.7597,-4.7658,-4.7615,-4.7697,-4.7653,-4.7679,-4.7691,-4.7695,-4.7698,-4.7648,-4.7724,-4.7861,-4.7874,-4.7705,-4.7704,-4.7702,0,-4.7284,-4.7363,-4.7431,-4.7451,-4.7493,-4.7525,-4.7545,-4.7577,-4.7606,-4.7646,-4.7665,-4.7712,-4.7737,-4.7773,-4.778,-4.7748,-4.7863,-4.782,-4.7869,-4.7869,-4.7891,-4.7889,-4.8032,-4.7912,-4.7912,-4.7912,-4.7911,0,-4.739,-4.745,-4.7466,-4.7508,-4.7575,-4.7579,-4.7646,-4.7662,-4.7692,-4.7737,-4.7728,-4.777,-4.7777,-4.7822,-4.7828,-4.7896,-4.7908,-4.7914,-4.7914,-4.7913,-4.7912,-4.7927,-4.792,-4.7915,-4.7915,-4.7914,-4.7913,0,-4.7484,-4.7497,-4.7571,-4.7606,-4.7617,-4.7664,-4.7694,-4.7735,-4.7748,-4.7805,-4.7819,-4.7839,-4.7891,-4.7902,-4.7964,-4.7968,-4.8048,-4.8043,-4.8036,-4.8035,-4.8082,-4.8077,-4.8238,-4.8259,-4.8128,-4.8129,-4.813,0,-4.755,-4.7596,-4.7636,-4.7666,-4.7687,-4.7736,-4.7766,-4.7773,-4.7805,-4.785,-4.7885,-4.7937,-4.7978,-4.8063,-4.8082,-4.8131,-4.8125,-4.8179,-4.8132,-4.813,-4.8124,-4.812,-4.8124,-4.8186,-4.8188,-4.8189,-4.819,0,-4.7664,-4.7669,-4.7713,-4.776,-4.7797,-4.7834,-4.787,-4.7895,-4.7907,-4.7944,-4.7998,-4.803,-4.8094,-4.8146,-4.8194,-4.8215,-4.8204,-4.8205,-4.8218,-4.8216,-4.8209,-4.8212,-4.8058,-4.82,-4.8199,-4.8198,-4.8198,-4.8197,-4.7744,-4.7785,-4.782,-4.787,-4.7898,-4.7932,-4.7972,-4.7991,-4.8036,-4.8088,-4.8091,-4.8149,-4.8185,-4.825,-4.8273,-4.832,-4.8303,-4.8323,-4.8327,-4.8332,-4.8335,-4.8205,-4.8329,-4.8329,-4.8328,-4.8328,-4.8328,0,-4.7856,-4.7879,-4.7925,-4.7976,-4.8016,-4.8005,-4.8044,-4.8078,-4.813,-4.8164,-4.8206,-4.8269,-4.8319,-4.8345,-4.8395,-4.8427,-4.8424,-4.844,-4.8436,-4.8441,-4.8348,-4.833,-4.8442,-4.8442,-4.8442,-4.8442,-4.8442,-4.8442,-4.7919,-4.7986,-4.7996,-4.8078,-4.8101,-4.8158,-4.8182,-4.8214,-4.8241,-4.8312,-4.8354,-4.8371,-4.8402,-4.8455,-4.8502,-4.8508,-4.8526,-4.8544,-4.8548,-4.8459,-4.8448,-4.8436,-4.842,-4.8549,-4.8549,-4.8637,-4.8638,-4.8638]},{"header":{"parameterUnit":"m.s-1","parameterCategory":1,"la1":30.2991,"la2":30.254,"lo1":-89.0895,"lo2":-89.0444,"dy":0.0017,"dx":0.0017,"nx":28,"ny":28,"refTime":"2026-03-05T03:00:00:Z","depth":0,"parameterNumber":3,"parameterNumberName":"V-component_of_WINDS"},"data":[0,0,0,0,0,0,0,0,0,0,0,0,0,0,0,0,0,0,0,0,0,0,0,0,0,0,0,0,0,0,0,0,0,0,0,0,0,0,0,0,0,0,0,0,0,0,0,0,0,0,0,0,0,0,0,0,0,0,1.9127,1.9128,0,1.919,1.9191,1.9191,1.923,1.923,1.923,1.923,1.9292,1.9293,1.9294,0,0,0,0,0,0,0,0,0,0,0,0,0,1.9039,1.9041,1.9127,1.9128,1.9129,1.919,1.9191,1.9191,1.923,1.923,1.923,1.923,1.9291,1.9293,1.9295,0,0,0,0,0,0,0,0,0,0,0,0,0,1.9087,1.9041,1.9127,1.9155,1.9158,1.919,1.9191,1.9192,1.923,1.923,1.923,1.923,1.9291,1.9293,1.9295,1.9302,0,0,1.9301,1.9302,0,0,0,0,0,0,0,0,1.9084,1.909,1.915,1.9153,1.9157,1.9202,1.9182,1.9229,1.9229,1.9202,1.923,1.9231,1.9261,1.9266,1.9277,1.9305,1.9308,1.9302,1.9303,1.9304,1.9304,0,0,0,0,0,0,0,1.9081,1.9088,1.9152,1.9151,1.9155,1.9164,1.9172,1.9191,1.9229,1.9205,1.9208,1.9215,1.9263,1.9275,1.9279,1.9309,1.9302,1.9304,1.9305,1.9306,1.9349,1.9349,0,0,0,0,0,0,1.9074,1.9085,1.915,1.9154,1.9121,1.9166,1.9174,1.9187,1.9229,1.9236,1.9214,1.9216,1.9271,1.9276,1.9281,1.9295,1.9304,1.9306,1.9307,1.9349,1.9349,1.9349,0,0,0,0,0,0,1.9072,1.9079,1.9147,1.912,1.913,1.9167,1.9182,1.9188,1.92,1.9237,1.9243,1.9219,1.9271,1.9278,1.9298,1.9297,1.9307,1.9309,1.935,1.9349,1.9349,1.932,0,0,0,0,0,0,1.9069,1.9078,1.9081,1.912,1.9131,1.9163,1.9182,1.9189,1.9204,1.9207,1.9243,1.9249,1.9272,1.9294,1.93,1.93,1.9311,1.935,1.9349,1.9349,1.9322,1.9319,1.9317,0,0,0,0,0,1.9066,1.9069,1.9081,1.9089,1.9136,1.9163,1.9169,1.9196,1.9204,1.9207,1.9232,1.9248,1.9296,1.9296,1.9302,1.9304,1.935,1.935,1.9349,1.9322,1.932,1.9317,0,0,0,0,0,0,1.9027,1.9075,1.9088,1.9105,1.913,1.9169,1.9174,1.9192,1.9214,1.9216,1.9248,1.9256,1.9273,1.929,1.9289,1.9315,1.9325,1.9326,1.9303,1.93,1.9298,1.9294,1.9312,0,0,0,0,0,1.9021,1.904,1.908,1.909,1.9102,1.9136,1.9149,1.9168,1.9195,1.9205,1.923,1.9255,1.9276,1.9289,1.931,1.9325,1.9334,1.9329,1.9327,1.9325,1.9325,1.9337,1.9335,1.9348,1.9348,1.9348,0,0,1.9008,1.9036,1.9045,1.9083,1.9105,1.9124,1.9144,1.9162,1.9177,1.9207,1.9228,1.9248,1.9278,1.9295,1.9304,1.9311,1.9324,1.9324,1.9322,1.9324,1.9336,1.9335,1.9334,1.9348,1.9348,1.9348,0,0,1.8993,1.9016,1.9028,1.905,1.9084,1.9107,1.911,1.9148,1.9162,1.9184,1.9208,1.9226,1.9261,1.9282,1.9297,1.9294,1.9311,1.93,1.9289,1.93,1.9299,1.9298,1.9299,1.9298,1.9301,1.9301,1.9301,0,1.8972,1.9002,1.9032,1.905,1.9067,1.9098,1.9111,1.9131,1.9168,1.9179,1.9186,1.9233,1.9255,1.9279,1.9279,1.929,1.9295,1.9296,1.9296,1.9296,1.9296,1.9297,1.9297,1.9299,1.9299,1.9299,1.93,0,1.8975,1.8995,1.9002,1.904,1.9057,1.9072,1.9106,1.912,1.9139,1.9161,1.9184,1.9212,1.9241,1.9248,1.9265,1.9276,1.9279,1.929,1.9302,1.9293,1.9294,1.9295,1.9297,1.9298,1.9298,1.9298,0,0,1.8936,1.8994,1.8996,1.9015,1.9055,1.9071,1.9089,1.9119,1.9131,1.9156,1.9173,1.9203,1.9216,1.9233,1.9253,1.9262,1.9261,1.9273,1.9275,1.9271,1.9276,1.9268,1.9268,1.9273,1.9273,1.9273,1.9275,0,1.8929,1.8963,1.8992,1.9016,1.9036,1.9067,1.9083,1.9109,1.9131,1.9152,1.9176,1.9198,1.9211,1.9223,1.9233,1.9259,1.9263,1.9259,1.9288,1.9289,1.9281,1.9268,1.9259,1.9259,1.9275,1.9275,1.9275,0,1.8924,1.8951,1.8976,1.9018,1.9027,1.9041,1.9072,1.9091,1.9123,1.9138,1.916,1.9181,1.9202,1.9212,1.9242,1.9239,1.9253,1.9267,1.9268,1.9272,1.9282,1.9273,1.9259,1.9259,1.9276,1.9276,1.9276,0,1.8895,1.8937,1.8959,1.8974,1.9022,1.9032,1.9052,1.9084,1.9101,1.9128,1.914,1.9168,1.9184,1.9206,1.9235,1.9239,1.9263,1.9274,1.9277,1.9276,1.928,1.9279,1.9269,1.9288,1.9288,1.9288,1.9288,0,1.8884,1.8898,1.8947,1.8961,1.8979,1.9013,1.903,1.9053,1.9082,1.9101,1.9129,1.9146,1.9183,1.9205,1.9228,1.925,1.9257,1.927,1.9276,1.9268,1.9267,1.9278,1.9279,1.9288,1.9288,1.9288,1.9288,0,1.8854,1.8887,1.8913,1.8958,1.897,1.8981,1.902,1.9034,1.9059,1.9083,1.909,1.9129,1.9156,1.9188,1.9224,1.924,1.9261,1.9269,1.9251,1.9255,1.9256,1.9256,1.9253,1.9255,1.9271,1.9271,1.9271,0,1.8845,1.8858,1.8905,1.892,1.894,1.8964,1.8983,1.9017,1.9035,1.9074,1.9084,1.9114,1.914,1.9182,1.9213,1.9242,1.9252,1.9249,1.9256,1.9249,1.9254,1.9253,1.9255,1.9247,1.9247,1.9246,1.9246,0,1.8826,1.8842,1.8868,1.8901,1.8922,1.8949,1.8977,1.8988,1.9029,1.9047,1.9077,1.9097,1.9136,1.9166,1.92,1.9221,1.9241,1.9244,1.9247,1.9238,1.9228,1.9235,1.9246,1.9244,1.9244,1.9244,1.9244,1.9244,1.8807,1.8821,1.8857,1.8886,1.8911,1.8937,1.8954,1.8982,1.9007,1.9043,1.9062,1.9092,1.9125,1.9173,1.9194,1.9217,1.9224,1.9227,1.9228,1.9228,1.9227,1.9224,1.9223,1.9223,1.9223,1.9223,1.9224,0,1.8791,1.8816,1.8842,1.8882,1.8905,1.8923,1.8956,1.8974,1.9,1.903,1.9056,1.9091,1.912,1.9155,1.9187,1.9199,1.9209,1.9207,1.9206,1.9211,1.9218,1.9213,1.9198,1.9198,1.9198,1.9198,1.9198,1.9198,1.8785,1.881,1.8831,1.887,1.8895,1.8926,1.8943,1.8968,1.8992,1.903,1.9056,1.9079,1.9112,1.9147,1.9175,1.9185,1.9196,1.919,1.9203,1.9208,1.921,1.9212,1.9208,1.9192,1.9192,1.9194,1.9194,1.9194]}]]